Location: Melara
(45.0500°N, 11.1833°E)
Time: 22:41:35
(UTC+00:00)

UKube-1 - Pass Details

Date: 06 June 2024
Orbit: 581 x 590 km, 98.3° (Epoch: 21 June)

Event Time Altitude Azimuth Distance (km) Brightness Sun altitude
Rises 00:52:21 0° 9° (N) 2,814 ? -18.6°
Reaches altitude 10° 00:54:33 10° 5° (N) 1,910 ? -18.5°
Maximum altitude 00:58:35 54° 288° (WNW) 716 ? -18.2°
Enters shadow 00:59:52 37° 234° (SW) 913 ? -18.1°
